Year,Month,Day,Hour,Minute,Value (Times are PST for temperature in C)
2014,09,22,00,00,17.80
2014,09,22,00,01,17.80
2014,09,22,00,02,17.70
2014,09,22,00,03,17.70
2014,09,22,00,04,17.70
2014,09,22,00,05,17.70
2014,09,22,00,06,17.70
2014,09,22,00,07,17.70
2014,09,22,00,08,17.70
2014,09,22,00,09,17.70
2014,09,22,00,10,17.70
2014,09,22,00,11,17.70
2014,09,22,00,12,17.70
2014,09,22,00,13,17.70
2014,09,22,00,14,17.70
2014,09,22,00,15,17.70
2014,09,22,00,16,17.60
2014,09,22,00,17,17.60
2014,09,22,00,18,17.60
2014,09,22,00,19,17.60
2014,09,22,00,20,17.60
2014,09,22,00,21,17.60
2014,09,22,00,22,17.60
2014,09,22,00,23,17.60
2014,09,22,00,24,17.50
2014,09,22,00,25,17.50
2014,09,22,00,26,17.50
2014,09,22,00,27,17.50
2014,09,22,00,28,17.50
2014,09,22,00,29,17.50
2014,09,22,00,30,17.50
2014,09,22,00,31,17.50
2014,09,22,00,32,17.40
2014,09,22,00,33,17.40
2014,09,22,00,34,17.40
2014,09,22,00,35,17.30
2014,09,22,00,36,17.30
2014,09,22,00,37,17.30
2014,09,22,00,38,17.30
2014,09,22,00,39,17.30
2014,09,22,00,40,17.30
2014,09,22,00,41,17.30
2014,09,22,00,42,17.30
2014,09,22,00,43,17.30
2014,09,22,00,44,17.30
2014,09,22,00,45,17.30
2014,09,22,00,46,17.30
2014,09,22,00,47,17.30
2014,09,22,00,48,17.30
2014,09,22,00,49,17.30
2014,09,22,00,50,17.30
2014,09,22,00,51,17.30
2014,09,22,00,52,17.30
2014,09,22,00,53,17.20
2014,09,22,00,54,17.20
2014,09,22,00,55,17.20
2014,09,22,00,56,17.20
2014,09,22,00,57,17.20
2014,09,22,00,58,17.20
2014,09,22,00,59,17.20
2014,09,22,01,00,17.20
2014,09,22,01,01,17.20
2014,09,22,01,02,17.20
2014,09,22,01,03,17.20
2014,09,22,01,04,17.10
2014,09,22,01,05,17.10
2014,09,22,01,06,17.10
2014,09,22,01,07,17.10
2014,09,22,01,08,17.10
2014,09,22,01,09,17.00
2014,09,22,01,10,17.00
2014,09,22,01,11,17.00
2014,09,22,01,12,17.00
2014,09,22,01,13,17.00
2014,09,22,01,14,17.00
2014,09,22,01,15,16.90
2014,09,22,01,16,16.90
2014,09,22,01,17,16.90
2014,09,22,01,18,16.90
2014,09,22,01,19,16.90
2014,09,22,01,20,16.80
2014,09,22,01,21,16.80
2014,09,22,01,22,16.80
2014,09,22,01,23,16.80
2014,09,22,01,24,16.80
2014,09,22,01,25,16.80
2014,09,22,01,26,16.80
2014,09,22,01,27,16.80
2014,09,22,01,28,16.80
2014,09,22,01,29,16.80
2014,09,22,01,30,16.80
2014,09,22,01,31,16.80
2014,09,22,01,32,16.80
2014,09,22,01,33,16.80
2014,09,22,01,34,16.80
2014,09,22,01,35,16.80
2014,09,22,01,36,16.80
2014,09,22,01,37,16.80
2014,09,22,01,38,16.80
2014,09,22,01,39,16.90
2014,09,22,01,40,16.90
2014,09,22,01,41,16.90
2014,09,22,01,42,16.90
2014,09,22,01,43,16.90
2014,09,22,01,44,16.90
2014,09,22,01,45,16.90
2014,09,22,01,46,16.90
2014,09,22,01,47,16.90
2014,09,22,01,48,17.00
2014,09,22,01,49,17.00
2014,09,22,01,50,17.00
2014,09,22,01,51,17.00
2014,09,22,01,52,17.00
2014,09,22,01,53,17.00
2014,09,22,01,54,17.00
2014,09,22,01,55,17.00
2014,09,22,01,56,17.00
2014,09,22,01,57,17.00
2014,09,22,01,58,17.00
2014,09,22,01,59,16.90
2014,09,22,02,00,16.90
2014,09,22,02,01,17.00
2014,09,22,02,02,17.00
2014,09,22,02,03,17.00
2014,09,22,02,04,17.00
2014,09,22,02,05,17.00
2014,09,22,02,06,17.00
2014,09,22,02,07,17.10
2014,09,22,02,08,17.10
2014,09,22,02,09,17.10
2014,09,22,02,10,17.10
2014,09,22,02,11,17.10
2014,09,22,02,12,17.10
2014,09,22,02,13,17.00
2014,09,22,02,14,17.00
2014,09,22,02,15,17.00
2014,09,22,02,16,17.00
2014,09,22,02,17,17.00
2014,09,22,02,18,17.00
2014,09,22,02,19,17.00
2014,09,22,02,20,17.00
2014,09,22,02,21,17.00
2014,09,22,02,22,17.00
2014,09,22,02,23,17.00
2014,09,22,02,24,17.10
2014,09,22,02,25,17.10
2014,09,22,02,26,17.10
2014,09,22,02,27,17.10
2014,09,22,02,28,17.10
2014,09,22,02,29,17.10
2014,09,22,02,30,17.10
2014,09,22,02,31,17.10
2014,09,22,02,32,17.10
2014,09,22,02,33,17.10
2014,09,22,02,34,17.10
2014,09,22,02,35,17.10
2014,09,22,02,36,17.10
2014,09,22,02,37,17.10
2014,09,22,02,38,17.10
2014,09,22,02,39,17.10
2014,09,22,02,40,17.10
2014,09,22,02,41,17.10
2014,09,22,02,42,17.10
2014,09,22,02,43,17.10
2014,09,22,02,44,17.10
2014,09,22,02,45,17.10
2014,09,22,02,46,17.10
2014,09,22,02,47,17.10
2014,09,22,02,48,17.10
2014,09,22,02,49,17.10
2014,09,22,02,50,17.00
2014,09,22,02,51,17.00
2014,09,22,02,52,17.00
2014,09,22,02,53,17.10
2014,09,22,02,54,17.10
2014,09,22,02,55,17.10
2014,09,22,02,56,17.10
2014,09,22,02,57,17.10
2014,09,22,02,58,17.10
2014,09,22,02,59,17.10
2014,09,22,03,00,17.10
2014,09,22,03,01,17.10
2014,09,22,03,02,17.20
2014,09,22,03,03,17.20
2014,09,22,03,04,17.20
2014,09,22,03,05,17.20
2014,09,22,03,06,17.20
2014,09,22,03,07,17.20
2014,09,22,03,08,17.20
2014,09,22,03,09,17.20
2014,09,22,03,10,17.20
2014,09,22,03,11,17.20
2014,09,22,03,12,17.20
2014,09,22,03,13,17.20
2014,09,22,03,14,17.20
2014,09,22,03,15,17.30
2014,09,22,03,16,17.30
2014,09,22,03,17,17.30
2014,09,22,03,18,17.30
2014,09,22,03,19,17.30
2014,09,22,03,20,17.20
2014,09,22,03,21,17.20
2014,09,22,03,22,17.20
2014,09,22,03,23,17.20
2014,09,22,03,24,17.20
2014,09,22,03,25,17.20
2014,09,22,03,26,17.20
2014,09,22,03,27,17.20
2014,09,22,03,28,17.30
2014,09,22,03,29,17.20
2014,09,22,03,30,17.20
2014,09,22,03,31,17.20
2014,09,22,03,32,17.20
2014,09,22,03,33,17.20
2014,09,22,03,34,17.20
2014,09,22,03,35,17.20
2014,09,22,03,36,17.30
2014,09,22,03,37,17.30
2014,09,22,03,38,17.30
2014,09,22,03,39,17.30
2014,09,22,03,40,17.30
2014,09,22,03,41,17.30
2014,09,22,03,42,17.30
2014,09,22,03,43,17.30
2014,09,22,03,44,17.30
2014,09,22,03,45,17.30
2014,09,22,03,46,17.30
2014,09,22,03,47,17.30
2014,09,22,03,48,17.30
2014,09,22,03,49,17.30
2014,09,22,03,50,17.30
2014,09,22,03,51,17.30
2014,09,22,03,52,17.30
2014,09,22,03,53,17.30
2014,09,22,03,54,17.30
2014,09,22,03,55,17.30
2014,09,22,03,56,17.30
2014,09,22,03,57,17.30
2014,09,22,03,58,17.30
2014,09,22,03,59,17.30
2014,09,22,04,00,17.30
2014,09,22,04,01,17.30
2014,09,22,04,02,17.30
2014,09,22,04,03,17.30
2014,09,22,04,04,17.30
2014,09,22,04,05,17.30
2014,09,22,04,06,17.30
2014,09,22,04,07,17.30
2014,09,22,04,08,17.30
2014,09,22,04,09,17.30
2014,09,22,04,10,17.30
2014,09,22,04,11,17.30
2014,09,22,04,12,17.30
2014,09,22,04,13,17.30
2014,09,22,04,14,17.30
2014,09,22,04,15,17.30
2014,09,22,04,16,17.30
2014,09,22,04,17,17.30
2014,09,22,04,18,17.30
2014,09,22,04,19,17.30
2014,09,22,04,20,17.30
2014,09,22,04,21,17.30
2014,09,22,04,22,17.30
2014,09,22,04,23,17.40
2014,09,22,04,24,17.40
2014,09,22,04,25,17.40
2014,09,22,04,26,17.50
2014,09,22,04,27,17.40
2014,09,22,04,28,17.40
2014,09,22,04,29,17.40
2014,09,22,04,30,17.40
2014,09,22,04,31,17.40
2014,09,22,04,32,17.40
2014,09,22,04,33,17.40
2014,09,22,04,34,17.40
2014,09,22,04,35,17.30
2014,09,22,04,36,17.30
2014,09,22,04,37,17.30
2014,09,22,04,38,17.30
2014,09,22,04,39,17.30
2014,09,22,04,40,17.30
2014,09,22,04,41,17.40
2014,09,22,04,42,17.40
2014,09,22,04,43,17.40
2014,09,22,04,44,17.40
2014,09,22,04,45,17.40
2014,09,22,04,46,17.40
2014,09,22,04,47,17.40
2014,09,22,04,48,17.40
2014,09,22,04,49,17.40
2014,09,22,04,50,17.40
2014,09,22,04,51,17.30
2014,09,22,04,52,17.30
2014,09,22,04,53,17.30
2014,09,22,04,54,17.30
2014,09,22,04,55,17.30
2014,09,22,04,56,17.30
2014,09,22,04,57,17.30
2014,09,22,04,58,17.30
2014,09,22,04,59,17.30
2014,09,22,05,00,17.40
2014,09,22,05,01,17.40
2014,09,22,05,02,17.40
2014,09,22,05,03,17.40
2014,09,22,05,04,17.40
2014,09,22,05,05,17.40
2014,09,22,05,06,17.50
2014,09,22,05,07,17.50
2014,09,22,05,08,17.50
2014,09,22,05,09,17.50
2014,09,22,05,10,17.50
2014,09,22,05,11,17.50
2014,09,22,05,12,17.50
2014,09,22,05,13,17.50
2014,09,22,05,14,17.50
2014,09,22,05,15,17.50
2014,09,22,05,16,17.50
2014,09,22,05,17,17.50
2014,09,22,05,18,17.50
2014,09,22,05,19,17.50
2014,09,22,05,20,17.50
2014,09,22,05,21,17.50
2014,09,22,05,22,17.50
2014,09,22,05,23,17.50
2014,09,22,05,24,17.50
2014,09,22,05,25,17.50
2014,09,22,05,26,17.50
2014,09,22,05,27,17.50
2014,09,22,05,28,17.50
2014,09,22,05,29,17.50
2014,09,22,05,30,17.50
2014,09,22,05,31,17.40
2014,09,22,05,32,17.40
2014,09,22,05,33,17.40
2014,09,22,05,34,17.40
2014,09,22,05,35,17.40
2014,09,22,05,36,17.40
2014,09,22,05,37,17.30
2014,09,22,05,38,17.30
2014,09,22,05,39,17.30
2014,09,22,05,40,17.30
2014,09,22,05,41,17.30
2014,09,22,05,42,17.30
2014,09,22,05,43,17.30
2014,09,22,05,44,17.30
2014,09,22,05,45,17.30
2014,09,22,05,46,17.30
2014,09,22,05,47,17.30
2014,09,22,05,48,17.30
2014,09,22,05,49,17.30
2014,09,22,05,50,17.20
2014,09,22,05,51,17.20
2014,09,22,05,52,17.10
2014,09,22,05,53,17.00
2014,09,22,05,54,17.00
2014,09,22,05,55,16.90
2014,09,22,05,56,16.90
2014,09,22,05,57,16.80
2014,09,22,05,58,16.80
2014,09,22,05,59,16.80
2014,09,22,06,00,16.70
2014,09,22,06,01,16.70
2014,09,22,06,02,16.70
2014,09,22,06,03,16.70
2014,09,22,06,04,16.70
2014,09,22,06,05,16.70
2014,09,22,06,06,16.70
2014,09,22,06,07,16.70
2014,09,22,06,08,16.60
2014,09,22,06,09,16.60
2014,09,22,06,10,16.60
2014,09,22,06,11,16.60
2014,09,22,06,12,16.60
2014,09,22,06,13,16.60
2014,09,22,06,14,16.60
2014,09,22,06,15,16.60
2014,09,22,06,16,16.60
2014,09,22,06,17,16.60
2014,09,22,06,18,16.60
2014,09,22,06,19,16.60
2014,09,22,06,20,16.60
2014,09,22,06,21,16.40
2014,09,22,06,22,16.40
2014,09,22,06,23,16.40
2014,09,22,06,24,16.40
2014,09,22,06,25,16.40
2014,09,22,06,26,16.40
2014,09,22,06,27,16.40
2014,09,22,06,28,16.40
2014,09,22,06,29,16.30
2014,09,22,06,30,16.30
2014,09,22,06,31,16.30
2014,09,22,06,32,16.20
2014,09,22,06,33,16.20
2014,09,22,06,34,16.20
2014,09,22,06,35,16.20
2014,09,22,06,36,16.20
2014,09,22,06,37,16.20
2014,09,22,06,38,16.20
2014,09,22,06,39,16.10
2014,09,22,06,40,16.10
2014,09,22,06,41,16.10
2014,09,22,06,42,16.10
2014,09,22,06,43,16.10
2014,09,22,06,44,16.20
2014,09,22,06,45,16.20
2014,09,22,06,46,16.20
2014,09,22,06,47,16.20
2014,09,22,06,48,16.20
2014,09,22,06,49,16.20
2014,09,22,06,50,16.20
2014,09,22,06,51,16.20
2014,09,22,06,52,16.10
2014,09,22,06,53,16.10
2014,09,22,06,54,16.10
2014,09,22,06,55,16.00
2014,09,22,06,56,15.90
2014,09,22,06,57,15.80
2014,09,22,06,58,15.80
2014,09,22,06,59,15.80
2014,09,22,07,00,15.70
2014,09,22,07,01,15.70
2014,09,22,07,02,15.60
2014,09,22,07,03,15.60
2014,09,22,07,04,15.60
2014,09,22,07,05,15.60
2014,09,22,07,06,15.50
2014,09,22,07,07,15.50
2014,09,22,07,08,15.50
2014,09,22,07,09,15.50
2014,09,22,07,10,15.50
2014,09,22,07,11,15.50
2014,09,22,07,12,15.40
2014,09,22,07,13,15.40
2014,09,22,07,14,15.40
2014,09,22,07,15,15.40
2014,09,22,07,16,15.30
2014,09,22,07,17,15.30
2014,09,22,07,18,15.30
2014,09,22,07,19,15.30
2014,09,22,07,20,15.30
2014,09,22,07,21,15.30
2014,09,22,07,22,15.20
2014,09,22,07,23,15.20
2014,09,22,07,24,15.10
2014,09,22,07,25,15.10
2014,09,22,07,26,15.10
2014,09,22,07,27,15.10
2014,09,22,07,28,15.00
2014,09,22,07,29,15.00
2014,09,22,07,30,15.00
2014,09,22,07,31,15.00
2014,09,22,07,32,14.90
2014,09,22,07,33,14.80
2014,09,22,07,34,14.80
2014,09,22,07,35,14.80
2014,09,22,07,36,14.70
2014,09,22,07,37,14.60
2014,09,22,07,38,14.60
2014,09,22,07,39,14.50
2014,09,22,07,40,14.50
2014,09,22,07,41,14.40
2014,09,22,07,42,14.40
2014,09,22,07,43,14.20
2014,09,22,07,44,14.10
2014,09,22,07,45,14.10
2014,09,22,07,46,14.00
2014,09,22,07,47,13.90
2014,09,22,07,48,13.90
2014,09,22,07,49,13.80
2014,09,22,07,50,13.70
2014,09,22,07,51,13.70
2014,09,22,07,52,13.60
2014,09,22,07,53,13.60
2014,09,22,07,54,13.50
2014,09,22,07,55,13.50
2014,09,22,07,56,13.50
2014,09,22,07,57,13.40
2014,09,22,07,58,13.30
2014,09,22,07,59,13.30
2014,09,22,08,00,13.30
2014,09,22,08,01,13.30
2014,09,22,08,02,13.30
2014,09,22,08,03,13.30
2014,09,22,08,04,13.30
2014,09,22,08,05,13.30
2014,09,22,08,06,13.30
2014,09,22,08,07,13.30
2014,09,22,08,08,13.30
2014,09,22,08,09,13.30
2014,09,22,08,10,13.30
2014,09,22,08,11,13.30
2014,09,22,08,12,13.30
2014,09,22,08,13,13.30
2014,09,22,08,14,13.30
2014,09,22,08,15,13.40
2014,09,22,08,16,13.40
2014,09,22,08,17,13.40
2014,09,22,08,18,13.40
2014,09,22,08,19,13.50
2014,09,22,08,20,13.50
2014,09,22,08,21,13.50
2014,09,22,08,22,13.50
2014,09,22,08,23,13.50
2014,09,22,08,24,13.50
2014,09,22,08,25,13.60
2014,09,22,08,26,13.60
2014,09,22,08,27,13.60
2014,09,22,08,28,13.60
2014,09,22,08,29,13.60
2014,09,22,08,30,13.60
2014,09,22,08,31,13.60
2014,09,22,08,32,13.60
2014,09,22,08,33,13.60
2014,09,22,08,34,13.60
2014,09,22,08,35,13.60
2014,09,22,08,36,13.50
2014,09,22,08,37,13.40
2014,09,22,08,38,13.30
2014,09,22,08,39,13.30
2014,09,22,08,40,13.20
2014,09,22,08,41,13.20
2014,09,22,08,42,13.10
2014,09,22,08,43,13.10
2014,09,22,08,44,13.10
2014,09,22,08,45,13.10
2014,09,22,08,46,13.10
2014,09,22,08,47,13.10
2014,09,22,08,48,13.00
2014,09,22,08,49,13.10
2014,09,22,08,50,13.10
2014,09,22,08,51,13.10
2014,09,22,08,52,13.10
2014,09,22,08,53,13.10
2014,09,22,08,54,13.10
2014,09,22,08,55,13.10
2014,09,22,08,56,13.00
2014,09,22,08,57,13.00
2014,09,22,08,58,13.00
2014,09,22,08,59,13.00
2014,09,22,09,00,13.00
2014,09,22,09,01,13.00
2014,09,22,09,02,12.90
2014,09,22,09,03,12.90
2014,09,22,09,04,12.90
2014,09,22,09,05,12.80
2014,09,22,09,06,12.80
2014,09,22,09,07,12.80
2014,09,22,09,08,12.90
2014,09,22,09,09,12.90
2014,09,22,09,10,12.90
2014,09,22,09,11,12.90
2014,09,22,09,12,12.90
2014,09,22,09,13,12.90
2014,09,22,09,14,12.90
2014,09,22,09,15,13.00
2014,09,22,09,16,13.00
2014,09,22,09,17,13.00
2014,09,22,09,18,13.00
2014,09,22,09,19,13.00
2014,09,22,09,20,13.00
2014,09,22,09,21,13.00
2014,09,22,09,22,13.10
2014,09,22,09,23,13.10
2014,09,22,09,24,13.10
2014,09,22,09,25,13.10
2014,09,22,09,26,13.20
2014,09,22,09,27,13.20
2014,09,22,09,28,13.30
2014,09,22,09,29,13.30
2014,09,22,09,30,13.30
2014,09,22,09,31,13.30
2014,09,22,09,32,13.30
2014,09,22,09,33,13.30
2014,09,22,09,34,13.30
2014,09,22,09,35,13.30
2014,09,22,09,36,13.40
2014,09,22,09,37,13.40
2014,09,22,09,38,13.50
2014,09,22,09,39,13.50
2014,09,22,09,40,13.60
2014,09,22,09,41,13.60
2014,09,22,09,42,13.60
2014,09,22,09,43,13.70
2014,09,22,09,44,13.70
2014,09,22,09,45,13.70
2014,09,22,09,46,13.70
2014,09,22,09,47,13.70
2014,09,22,09,48,13.80
2014,09,22,09,49,13.80
2014,09,22,09,50,13.90
2014,09,22,09,51,13.90
2014,09,22,09,52,14.00
2014,09,22,09,53,14.00
2014,09,22,09,54,14.00
2014,09,22,09,55,14.10
2014,09,22,09,56,14.10
2014,09,22,09,57,14.10
2014,09,22,09,58,14.20
2014,09,22,09,59,14.20
2014,09,22,10,00,14.20
2014,09,22,10,01,14.20
2014,09,22,10,02,14.20
2014,09,22,10,03,14.30
2014,09,22,10,04,14.30
2014,09,22,10,05,14.40
2014,09,22,10,06,14.40
2014,09,22,10,07,14.50
2014,09,22,10,08,14.50
2014,09,22,10,09,14.50
2014,09,22,10,10,14.50
2014,09,22,10,11,14.60
2014,09,22,10,12,14.60
2014,09,22,10,13,14.60
2014,09,22,10,14,14.60
2014,09,22,10,15,14.70
2014,09,22,10,16,14.70
2014,09,22,10,17,14.70
2014,09,22,10,18,14.80
2014,09,22,10,19,14.80
2014,09,22,10,20,14.80
2014,09,22,10,21,14.80
2014,09,22,10,22,14.90
2014,09,22,10,23,15.00
2014,09,22,10,24,15.00
2014,09,22,10,25,15.10
2014,09,22,10,26,15.10
2014,09,22,10,27,15.20
2014,09,22,10,28,15.30
2014,09,22,10,29,15.40
2014,09,22,10,30,15.50
2014,09,22,10,31,15.60
2014,09,22,10,32,15.70
2014,09,22,10,33,15.80
2014,09,22,10,34,15.80
2014,09,22,10,35,15.80
2014,09,22,10,36,15.90
2014,09,22,10,37,15.90
2014,09,22,10,38,15.80
2014,09,22,10,39,15.80
2014,09,22,10,40,15.70
2014,09,22,10,41,15.70
2014,09,22,10,42,15.60
2014,09,22,10,43,15.50
2014,09,22,10,44,15.50
2014,09,22,10,45,15.30
2014,09,22,10,46,15.30
2014,09,22,10,47,15.30
2014,09,22,10,48,15.30
2014,09,22,10,49,15.40
2014,09,22,10,50,15.50
2014,09,22,10,51,15.50
2014,09,22,10,52,15.60
2014,09,22,10,53,15.60
2014,09,22,10,54,15.50
2014,09,22,10,55,15.50
2014,09,22,10,56,15.40
2014,09,22,10,57,15.40
2014,09,22,10,58,15.30
2014,09,22,10,59,15.30
2014,09,22,11,00,15.30
2014,09,22,11,01,15.30
2014,09,22,11,02,15.30
2014,09,22,11,03,15.30
2014,09,22,11,04,15.40
2014,09,22,11,05,15.50
2014,09,22,11,06,15.60
2014,09,22,11,07,15.70
2014,09,22,11,08,15.80
2014,09,22,11,09,15.90
2014,09,22,11,10,16.00
2014,09,22,11,11,16.10
2014,09,22,11,12,16.10
2014,09,22,11,13,16.20
2014,09,22,11,14,16.40
2014,09,22,11,15,16.30
2014,09,22,11,16,16.20
2014,09,22,11,17,16.20
2014,09,22,11,18,16.20
2014,09,22,11,19,16.20
2014,09,22,11,20,16.20
2014,09,22,11,21,16.10
2014,09,22,11,22,16.10
2014,09,22,11,23,16.10
2014,09,22,11,24,16.00
2014,09,22,11,25,16.10
2014,09,22,11,26,16.10
2014,09,22,11,27,16.00
2014,09,22,11,28,16.00
2014,09,22,11,29,16.10
2014,09,22,11,30,15.90
2014,09,22,11,31,15.90
2014,09,22,11,32,15.80
2014,09,22,11,33,15.70
2014,09,22,11,34,15.60
2014,09,22,11,35,15.50
2014,09,22,11,36,15.40
2014,09,22,11,37,15.40
2014,09,22,11,38,15.40
2014,09,22,11,39,15.30
2014,09,22,11,40,15.20
2014,09,22,11,41,15.10
2014,09,22,11,42,15.10
2014,09,22,11,43,15.10
2014,09,22,11,44,15.10
2014,09,22,11,45,15.10
2014,09,22,11,46,15.00
2014,09,22,11,47,15.00
2014,09,22,11,48,15.00
2014,09,22,11,49,14.90
2014,09,22,11,50,15.00
2014,09,22,11,51,15.00
2014,09,22,11,52,15.00
2014,09,22,11,53,15.00
2014,09,22,11,54,15.10
2014,09,22,11,55,15.10
2014,09,22,11,56,15.20
2014,09,22,11,57,15.30
2014,09,22,11,58,15.40
2014,09,22,11,59,15.30
2014,09,22,12,00,15.30
2014,09,22,12,01,15.30
2014,09,22,12,02,15.30
2014,09,22,12,03,15.30
2014,09,22,12,04,15.30
2014,09,22,12,05,15.30
2014,09,22,12,06,15.30
2014,09,22,12,07,15.30
2014,09,22,12,08,15.20
2014,09,22,12,09,15.20
2014,09,22,12,10,15.20
2014,09,22,12,11,15.30
2014,09,22,12,12,15.30
2014,09,22,12,13,15.50
2014,09,22,12,14,15.50
2014,09,22,12,15,15.50
2014,09,22,12,16,15.60
2014,09,22,12,17,15.70
2014,09,22,12,18,15.80
2014,09,22,12,19,15.70
2014,09,22,12,20,15.70
2014,09,22,12,21,15.60
2014,09,22,12,22,15.60
2014,09,22,12,23,15.60
2014,09,22,12,24,15.60
2014,09,22,12,25,15.70
2014,09,22,12,26,15.60
2014,09,22,12,27,15.50
2014,09,22,12,28,15.50
2014,09,22,12,29,15.50
2014,09,22,12,30,15.40
2014,09,22,12,31,15.50
2014,09,22,12,32,15.50
2014,09,22,12,33,15.40
2014,09,22,12,34,15.40
2014,09,22,12,35,15.40
2014,09,22,12,36,15.40
2014,09,22,12,37,15.40
2014,09,22,12,38,15.40
2014,09,22,12,39,15.40
2014,09,22,12,40,15.40
2014,09,22,12,41,15.30
2014,09,22,12,42,15.30
2014,09,22,12,43,15.20
2014,09,22,12,44,15.20
2014,09,22,12,45,15.30
2014,09,22,12,46,15.50
2014,09,22,12,47,15.50
2014,09,22,12,48,15.60
2014,09,22,12,49,15.50
2014,09,22,12,50,15.50
2014,09,22,12,51,15.50
2014,09,22,12,52,15.50
2014,09,22,12,53,15.60
2014,09,22,12,54,15.50
2014,09,22,12,55,15.60
2014,09,22,12,56,15.50
2014,09,22,12,57,15.50
2014,09,22,12,58,15.40
2014,09,22,12,59,15.50
2014,09,22,13,00,15.50
2014,09,22,13,01,15.50
2014,09,22,13,02,15.50
2014,09,22,13,03,15.50
2014,09,22,13,04,15.60
2014,09,22,13,05,15.70
2014,09,22,13,06,15.70
2014,09,22,13,07,15.60
2014,09,22,13,08,15.70
2014,09,22,13,09,15.60
2014,09,22,13,10,15.50
2014,09,22,13,11,15.40
2014,09,22,13,12,15.30
2014,09,22,13,13,15.30
2014,09,22,13,14,15.30
2014,09,22,13,15,15.30
2014,09,22,13,16,15.20
2014,09,22,13,17,15.20
2014,09,22,13,18,15.20
2014,09,22,13,19,15.20
2014,09,22,13,20,15.20
2014,09,22,13,21,15.10
2014,09,22,13,22,15.20
2014,09,22,13,23,15.10
2014,09,22,13,24,15.20
2014,09,22,13,25,15.20
2014,09,22,13,26,15.10
2014,09,22,13,27,15.10
2014,09,22,13,28,15.00
2014,09,22,13,29,15.00
2014,09,22,13,30,14.90
2014,09,22,13,31,14.80
2014,09,22,13,32,14.80
2014,09,22,13,33,14.80
2014,09,22,13,34,14.80
2014,09,22,13,35,14.70
2014,09,22,13,36,14.70
2014,09,22,13,37,14.70
2014,09,22,13,38,14.70
2014,09,22,13,39,14.80
2014,09,22,13,40,14.90
2014,09,22,13,41,15.00
2014,09,22,13,42,15.00
2014,09,22,13,43,15.10
2014,09,22,13,44,15.10
2014,09,22,13,45,15.10
2014,09,22,13,46,15.10
2014,09,22,13,47,15.10
2014,09,22,13,48,15.20
2014,09,22,13,49,15.20
2014,09,22,13,50,15.30
2014,09,22,13,51,15.30
2014,09,22,13,52,15.40
2014,09,22,13,53,15.50
2014,09,22,13,54,15.60
2014,09,22,13,55,15.70
2014,09,22,13,56,15.70
2014,09,22,13,57,15.80
2014,09,22,13,58,15.80
2014,09,22,13,59,15.80
2014,09,22,14,00,15.80
2014,09,22,14,01,15.80
2014,09,22,14,02,15.80
2014,09,22,14,03,15.80
2014,09,22,14,04,15.90
2014,09,22,14,05,16.00
2014,09,22,14,06,15.90
2014,09,22,14,07,15.90
2014,09,22,14,08,15.90
2014,09,22,14,09,15.90
2014,09,22,14,10,15.90
2014,09,22,14,11,16.00
2014,09,22,14,12,16.10
2014,09,22,14,13,16.10
2014,09,22,14,14,16.10
2014,09,22,14,15,16.10
2014,09,22,14,16,16.20
2014,09,22,14,17,16.30
2014,09,22,14,18,16.30
2014,09,22,14,19,16.30
2014,09,22,14,20,16.40
2014,09,22,14,21,16.40
2014,09,22,14,22,16.40
2014,09,22,14,23,16.40
2014,09,22,14,24,16.40
2014,09,22,14,25,16.40
2014,09,22,14,26,16.40
2014,09,22,14,27,16.40
2014,09,22,14,28,16.40
2014,09,22,14,29,16.40
2014,09,22,14,30,16.40
2014,09,22,14,31,16.40
2014,09,22,14,32,16.50
2014,09,22,14,33,16.50
2014,09,22,14,34,16.40
2014,09,22,14,35,16.40
2014,09,22,14,36,16.40
2014,09,22,14,37,16.40
2014,09,22,14,38,16.40
2014,09,22,14,39,16.30
2014,09,22,14,40,16.30
2014,09,22,14,41,16.30
2014,09,22,14,42,16.30
2014,09,22,14,43,16.30
2014,09,22,14,44,16.40
2014,09,22,14,45,16.50
2014,09,22,14,46,16.60
2014,09,22,14,47,16.70
2014,09,22,14,48,16.70
2014,09,22,14,49,16.70
2014,09,22,14,50,16.70
2014,09,22,14,51,16.70
2014,09,22,14,52,16.70
2014,09,22,14,53,16.70
2014,09,22,14,54,16.70
2014,09,22,14,55,16.80
2014,09,22,14,56,16.90
2014,09,22,14,57,16.90
2014,09,22,14,58,17.00
2014,09,22,14,59,17.00
2014,09,22,15,00,17.10
2014,09,22,15,01,17.10
2014,09,22,15,02,17.10
2014,09,22,15,03,17.10
2014,09,22,15,04,17.20
2014,09,22,15,05,17.30
2014,09,22,15,06,17.30
2014,09,22,15,07,17.30
2014,09,22,15,08,17.10
2014,09,22,15,09,17.10
2014,09,22,15,10,17.10
2014,09,22,15,11,17.00
2014,09,22,15,12,17.00
2014,09,22,15,13,16.90
2014,09,22,15,14,16.90
2014,09,22,15,15,16.80
2014,09,22,15,16,16.80
2014,09,22,15,17,16.80
2014,09,22,15,18,16.90
2014,09,22,15,19,16.90
2014,09,22,15,20,16.90
2014,09,22,15,21,16.90
2014,09,22,15,22,16.80
2014,09,22,15,23,16.80
2014,09,22,15,24,16.90
2014,09,22,15,25,16.90
2014,09,22,15,26,17.00
2014,09,22,15,27,17.00
2014,09,22,15,28,17.10
2014,09,22,15,29,17.10
2014,09,22,15,30,17.20
2014,09,22,15,31,17.20
2014,09,22,15,32,17.10
2014,09,22,15,33,17.10
2014,09,22,15,34,17.10
2014,09,22,15,35,17.10
2014,09,22,15,36,17.10
2014,09,22,15,37,17.10
2014,09,22,15,38,17.10
2014,09,22,15,39,17.10
2014,09,22,15,40,17.20
2014,09,22,15,41,17.20
2014,09,22,15,42,17.30
2014,09,22,15,43,17.30
2014,09,22,15,44,17.30
2014,09,22,15,45,17.30
2014,09,22,15,46,17.40
2014,09,22,15,47,17.40
2014,09,22,15,48,17.40
2014,09,22,15,49,17.30
2014,09,22,15,50,17.30
2014,09,22,15,51,17.40
2014,09,22,15,52,17.50
2014,09,22,15,53,17.50
2014,09,22,15,54,17.50
2014,09,22,15,55,17.50
2014,09,22,15,56,17.50
2014,09,22,15,57,17.50
2014,09,22,15,58,17.50
2014,09,22,15,59,17.50
2014,09,22,16,00,17.50
2014,09,22,16,01,17.40
2014,09,22,16,02,17.40
2014,09,22,16,03,17.30
2014,09,22,16,04,17.30
2014,09,22,16,05,17.30
2014,09,22,16,06,17.30
2014,09,22,16,07,17.30
2014,09,22,16,08,17.30
2014,09,22,16,09,17.30
2014,09,22,16,10,17.30
2014,09,22,16,11,17.30
2014,09,22,16,12,17.40
2014,09,22,16,13,17.50
2014,09,22,16,14,17.50
2014,09,22,16,15,17.60
2014,09,22,16,16,17.70
2014,09,22,16,17,17.80
2014,09,22,16,18,17.90
2014,09,22,16,19,17.90
2014,09,22,16,20,17.90
2014,09,22,16,21,17.90
2014,09,22,16,22,18.00
2014,09,22,16,23,18.00
2014,09,22,16,24,17.90
2014,09,22,16,25,17.90
2014,09,22,16,26,17.80
2014,09,22,16,27,17.80
2014,09,22,16,28,17.80
2014,09,22,16,29,17.80
2014,09,22,16,30,17.80
2014,09,22,16,31,17.90
2014,09,22,16,32,17.90
2014,09,22,16,33,17.90
2014,09,22,16,34,17.90
2014,09,22,16,35,18.00
2014,09,22,16,36,18.10
2014,09,22,16,37,18.20
2014,09,22,16,38,18.20
2014,09,22,16,39,18.30
2014,09,22,16,40,18.40
2014,09,22,16,41,18.50
2014,09,22,16,42,18.60
2014,09,22,16,43,18.60
2014,09,22,16,44,18.70
2014,09,22,16,45,18.80
2014,09,22,16,46,18.80
2014,09,22,16,47,18.80
2014,09,22,16,48,18.80
2014,09,22,16,49,18.80
2014,09,22,16,50,18.80
2014,09,22,16,51,18.80
2014,09,22,16,52,18.80
2014,09,22,16,53,18.80
2014,09,22,16,54,18.80
2014,09,22,16,55,18.90
2014,09,22,16,56,18.90
2014,09,22,16,57,18.90
2014,09,22,16,58,18.90
2014,09,22,16,59,18.90
2014,09,22,17,00,18.80
2014,09,22,17,01,18.80
2014,09,22,17,02,18.80
2014,09,22,17,03,18.90
2014,09,22,17,04,18.90
2014,09,22,17,05,18.80
2014,09,22,17,06,18.90
2014,09,22,17,07,18.90
2014,09,22,17,08,18.90
2014,09,22,17,09,18.90
2014,09,22,17,10,18.90
2014,09,22,17,11,18.90
2014,09,22,17,12,18.90
2014,09,22,17,13,18.90
2014,09,22,17,14,18.90
2014,09,22,17,15,18.90
2014,09,22,17,16,18.90
2014,09,22,17,17,18.90
2014,09,22,17,18,18.90
2014,09,22,17,19,18.90